Tracking 22438 objects as of 24-Feb-2021
HD Live streaming from Space Station
objects crossing your sky now

DELTA 1 DEB

Track DELTA 1 DEB now!
10-day predictions


NORAD ID: 21438
Int'l Code: 1975-052DW
Perigee: 1,093.6 km
Apogee: 1,213.1 km
Inclination: 99.6 °
Period: 108.3 minutes
Semi major axis: 7524 km
RCS: 0.0118 m2 (small)
Launch date: June 12, 1975
Source: United States (US)
Launch site: AIR FORCE WESTERN TEST RANGE (AFWTR)

Note: This is SATELLITE DEBRIS
aabbcc
Your satellite tracking list
Your tracking list is empty




NASA's NSSDC Master Catalog

Two Line Element Set (TLE):
1 21438U 75052DW  21055.49978807  .00000044  00000-0  17862-3 0  9997
2 21438  99.5727  66.8685 0079387 255.7375 264.2812 13.30153138446429
Source of the keplerian elements: AFSPC